Flag for Denmark Weather past 2 weeks in Randers, Denmark

Now
50 °F

Passing clouds.


Feels Like: 49 °F
Forecast: 36 / 52 °F
Wind: 3 mph from Southwest

Location: Tirstrup

Current Time: Apr 25, 2015 at 10:44:40 PM

Latest Report: Apr 25, 2015 at 10:20 PM


Visibility: N/A

Pressure: 29.59 "Hg

Humidity: 82%

Dew point: 45 °F

Location of RandersLocation

Historic Weather in Randers — Graph

°F

Randers temperature yesterday

Maximum temperature yesterday: 55 °F (at 6:20 PM)
Minimum temperature yesterday: 46 °F (at 2:50 AM)
Average temperature yesterday: 49 °F

Past Weeks' High & Low Weather Summary

 TemperatureHumidityPressure
High68 °F (Apr 20, 5:20 PM)93% (Apr 11, 8:20 AM)30.39 "Hg (Apr 11, 8:20 AM)
Low30 °F (Apr 18, 6:50 AM)13% (Apr 20, 3:50 PM)29.59 "Hg (Apr 25, 3:20 PM)
Average48 °F66%30.04 "Hg
* Reported Apr 10 9:20 PM — Apr 25 9:20 PM, Randers, Weather by CustomWeather, © 2015

Note: Actual official high and low records may vary slightly from our data, if they occured in-between our weather recording intervals... More about our weather records

Advertising

Randers weather history for previous 24 hours

 ConditionsComfort  
Time TempWeatherWind HumidityBarometerVisibility
9:20 PM
Sat, Apr 25
52 °FPartly sunny.5 mph82%29.59 "HgN/A
8:50 PM52 °FPartly sunny.5 mph88%29.59 "HgN/A
8:20 PM52 °FPartly sunny.5 mph88%29.59 "Hg4 mi
7:50 PM52 °FSprinkles. Fog.3 mph88%29.59 "Hg3 mi
7:20 PM54 °FPartly sunny.5 mph82%29.59 "Hg4 mi
6:50 PM54 °FDrizzle. Partly sunny.5 mph82%29.59 "Hg4 mi
6:20 PM54 °FDrizzle. Fog.5 mph82%29.59 "Hg3 mi
5:50 PM54 °FLight rain. Partly sunny.5 mph82%29.59 "Hg2 mi
5:20 PM54 °FLight rain. Overcast.5 mph82%29.59 "Hg2 mi
4:50 PM54 °FLight rain. Fog.7 mph82%29.59 "Hg2 mi
4:20 PM54 °FLight rain. Overcast.7 mph82%29.59 "Hg3 mi
3:50 PM55 °FLight rain. Overcast.5 mph77%29.59 "Hg4 mi
3:20 PM55 °FLight rain. Overcast.5 mph77%29.59 "Hg3 mi
2:50 PM55 °FLight rain. Fog.5 mph77%29.62 "Hg3 mi
2:20 PM57 °FSprinkles. Partly sunny.6 mph67%29.62 "Hg5 mi
1:50 PM57 °FSprinkles. Partly sunny.9 mph67%29.62 "Hg4 mi
1:20 PM55 °FSprinkles. Partly sunny.6 mph72%29.62 "Hg3 mi
12:50 PM55 °FPartly sunny.6 mph72%29.62 "Hg3 mi
12:20 PM55 °FFog.9 mph72%29.62 "Hg3 mi
11:50 AM54 °FFog.9 mph77%29.62 "Hg3 mi
11:20 AM54 °FPartly sunny.9 mph72%29.62 "Hg3 mi
10:50 AM54 °FPassing clouds.7 mph72%29.62 "Hg3 mi
10:20 AM52 °FPartly sunny.8 mph72%29.62 "Hg4 mi
9:50 AM50 °FPartly sunny.7 mph71%29.62 "Hg4 mi
9:20 AM50 °FPartly sunny.9 mph71%29.62 "Hg4 mi
8:50 AM48 °FFog.6 mph82%29.62 "Hg3 mi
8:20 AM48 °FFog.6 mph82%29.62 "Hg3 mi
7:50 AM46 °FFog.2 mph87%29.62 "Hg2 mi
7:20 AM46 °FDrizzle. Fog.3 mph87%29.62 "Hg2 mi
6:50 AM46 °FLight rain. Fog.5 mph87%29.65 "Hg2 mi
6:20 AM46 °FDrizzle. Fog.6 mph87%29.65 "Hg2 mi
5:20 AM43 °FFog.2 mph87%29.65 "Hg2 mi
4:50 AM43 °FFog.2 mph87%29.65 "Hg1 mi
4:20 AM43 °FFog.1 mph87%29.65 "Hg2 mi
3:50 AM41 °FFog.3 mph87%29.68 "Hg2 mi
3:20 AM39 °FFog.2 mph87%29.68 "Hg1 mi
2:50 AM41 °FFog.1 mph81%29.68 "Hg2 mi
2:20 AM43 °FFog.3 mph81%29.71 "Hg3 mi
1:50 AM41 °FFog.3 mph87%29.71 "Hg3 mi
1:20 AM43 °FFog.3 mph81%29.71 "Hg2 mi
12:50 AM43 °FFog.2 mph81%29.71 "Hg2 mi
12:20 AM43 °FFog.2 mph76%29.71 "Hg2 mi
11:20 PM
Fri, Apr 24
46 °FCool.2 mph71%29.74 "Hg4 mi
10:50 PM46 °FCool.3 mph71%29.74 "Hg6 mi
10:20 PM48 °FCool.5 mph66%29.74 "HgN/A
Weather by CustomWeather, © 2015

See weather overviewHow to use our weather pages